METAR Formatted Surface Weather Observation
Issued by NWS

Home | Current Version | Previous Version | Text Only | Print | Product List | Glossary On
Versions: 1 2 3 4 5 6 7 8 9 10 11 12 13 14 15 16 17 18 19 20 21 22 23 24 25 26 27 28 29 30 31 32 33 34 35 36 37 38 39 40 41 42 43 44 45 46 47 48 49 50
000
SAUS45 KSLC 030420
MTRU16
METAR KU16 030358Z AUTO 19008KT 9SM BKN003 01/00 A2973
RMK AO2 SLP704 T00060000 TSNO $
03/02/15 22:09:26  SPECI KU16 030409Z AUTO 21007KT 10SM SCT003 01/00 A2973
RMK AO2 TSNO $



USA.gov is the U.S. government's official web portal to all federal, state and local government web resources and services.